DAL1194 KLAX-KSLC

Flight info

Callsign DAL1194
Flight time N/A
Altitude 33000
Route ORCKA5 LAS Q70 BLIPP Q842 WINEN MLF PITTT2
Aircraft B753/M-SDE2E3FGHIJ3J4J7RWXY/LB1

Departure

Time 2026-05-04 19:49
Airport Los Angeles International Airport (KLAX)

Arrival

Time N/A
Airport Salt Lake City International Airport (KSLC)
Time Latitude Longitude Altitude Speed Heading
2026-05-04 19:35 33.94711 -118.40352 137 ft 0 kts 228°
2026-05-04 19:40 33.94714 -118.40347 137 ft 3 kts 229°
2026-05-04 19:41 33.94729 -118.40321 137 ft 4 kts 244°
2026-05-04 19:41 33.94735 -118.40292 137 ft 4 kts 272°
2026-05-04 19:41 33.94728 -118.40271 137 ft 4 kts 324°
2026-05-04 19:41 33.94718 -118.40267 137 ft 7 kts 353°
2026-05-04 19:45 33.94738 -118.40270 137 ft 12 kts 353°
2026-05-04 19:45 33.94802 -118.40281 137 ft 4 kts 341°
2026-05-04 19:46 33.94808 -118.40284 137 ft 3 kts 339°
2026-05-04 19:46 33.94889 -118.40279 137 ft 14 kts 63°
2026-05-04 19:46 33.94901 -118.40230 137 ft 1 kts 73°
2026-05-04 19:46 33.94910 -118.40207 137 ft 5 kts 56°
2026-05-04 19:47 33.94912 -118.40203 137 ft 0 kts 52°
2026-05-04 19:47 33.94954 -118.40185 137 ft 14 kts
2026-05-04 19:48 33.95009 -118.40237 137 ft 3 kts 270°
2026-05-04 19:48 33.95009 -118.40238 137 ft 0 kts 270°
2026-05-04 19:48 33.94977 -118.40615 138 ft 91 kts 261°
2026-05-04 19:48 33.94870 -118.41679 233 ft 154 kts 262°
2026-05-04 19:49 33.94748 -118.42959 1199 ft 153 kts 262°
2026-05-04 19:49 33.94622 -118.44284 2120 ft 167 kts 263°
2026-05-04 19:49 33.94463 -118.45731 2849 ft 186 kts 261°
2026-05-04 19:49 33.94041 -118.47353 3306 ft 220 kts 238°
2026-05-04 19:50 33.92855 -118.48565 4473 ft 232 kts 208°
2026-05-04 19:50 33.91238 -118.48948 5679 ft 246 kts 180°
2026-05-04 19:50 33.89560 -118.48358 6849 ft 260 kts 153°
2026-05-04 19:50 33.88218 -118.46888 7957 ft 273 kts 127°
2026-05-04 19:51 33.87470 -118.44749 9030 ft 286 kts 102°
2026-05-04 19:51 33.87519 -118.42320 10105 ft 298 kts 77°
2026-05-04 19:51 33.88383 -118.40017 11127 ft 310 kts 54°
2026-05-04 19:51 33.89952 -118.38221 12038 ft 323 kts 31°
2026-05-04 19:52 33.91995 -118.36905 12964 ft 337 kts 26°
2026-05-04 19:52 33.94045 -118.35427 13919 ft 350 kts 29°
2026-05-04 19:52 33.96130 -118.33804 14826 ft 364 kts 30°
2026-05-04 19:52 33.98276 -118.32084 15684 ft 377 kts 31°
2026-05-04 19:53 34.00430 -118.30180 16509 ft 392 kts 38°
2026-05-04 19:53 34.02341 -118.27766 17360 ft 405 kts 50°
2026-05-04 19:53 34.04017 -118.24966 18126 ft 418 kts 56°
2026-05-04 19:53 34.05606 -118.21959 18835 ft 432 kts 58°
2026-05-04 19:54 34.07226 -118.18852 19527 ft 445 kts 57°
2026-05-04 19:54 34.08929 -118.15689 20333 ft 454 kts 56°
2026-05-04 19:54 34.10703 -118.12494 21167 ft 462 kts 56°
2026-05-04 19:54 34.12533 -118.09258 21971 ft 470 kts 55°
2026-05-04 19:55 34.14396 -118.05980 22759 ft 478 kts 55°
2026-05-04 19:55 34.16289 -118.02647 23532 ft 485 kts 55°
2026-05-04 19:55 34.18207 -117.99255 24279 ft 493 kts 55°
2026-05-04 19:55 34.20153 -117.95804 24972 ft 501 kts 56°
2026-05-04 19:56 34.22130 -117.92289 25611 ft 510 kts 57°
2026-05-04 19:56 34.24141 -117.88705 26233 ft 519 kts 57°
2026-05-04 19:56 34.26181 -117.85063 26851 ft 528 kts 58°
2026-05-04 19:56 34.28254 -117.81359 27453 ft 536 kts 58°
2026-05-04 19:57 34.30358 -117.77595 28045 ft 544 kts 58°
2026-05-04 19:57 34.32495 -117.73769 28638 ft 552 kts 59°
2026-05-04 19:57 34.34660 -117.69894 29221 ft 560 kts 59°
2026-05-04 19:57 34.36892 -117.66001 29804 ft 567 kts 58°
2026-05-04 19:58 34.39201 -117.62093 30378 ft 574 kts 57°
2026-05-04 19:58 34.41556 -117.58173 31140 ft 576 kts 57°
2026-05-04 19:58 34.43920 -117.54259 31928 ft 576 kts 56°
2026-05-04 19:58 34.46284 -117.50337 32658 ft 576 kts 56°
2026-05-04 19:59 34.48649 -117.46399 32968 ft 577 kts 56°
2026-05-04 19:59 34.53343 -117.38525 33037 ft 582 kts 56°
2026-05-04 20:00 34.58099 -117.30496 33023 ft 582 kts 56°
2026-05-04 20:00 34.62790 -117.22556 33018 ft 581 kts 56°
2026-05-04 20:01 34.67497 -117.14576 33013 ft 581 kts 56°
2026-05-04 20:01 34.72198 -117.06592 33005 ft 580 kts 56°
2026-05-04 20:02 34.76894 -116.98598 32992 ft 580 kts 55°
2026-05-04 20:02 34.81583 -116.90600 32976 ft 580 kts 55°
2026-05-04 20:03 34.86264 -116.82594 32964 ft 579 kts 55°
2026-05-04 20:03 34.90903 -116.74647 32959 ft 579 kts 55°
2026-05-04 20:04 34.95994 -116.67022 32960 ft 579 kts 47°
2026-05-04 20:04 35.01530 -116.59885 32956 ft 579 kts 44°
2026-05-04 20:05 35.07111 -116.52810 32952 ft 578 kts 45°
2026-05-04 20:05 35.12626 -116.45630 32949 ft 579 kts 46°
2026-05-04 20:06 35.18077 -116.38396 32946 ft 578 kts 46°
2026-05-04 20:06 35.23511 -116.31150 32946 ft 578 kts 46°
2026-05-04 20:07 35.28949 -116.23900 32947 ft 578 kts 46°
2026-05-04 20:07 35.34397 -116.16635 32944 ft 579 kts 46°
2026-05-04 20:08 35.39842 -116.09363 32932 ft 579 kts 46°
2026-05-04 20:08 35.45278 -116.02084 32926 ft 579 kts 46°
2026-05-04 20:09 35.50714 -115.94786 32921 ft 579 kts 46°
2026-05-04 20:09 35.56112 -115.87525 32917 ft 579 kts 46°
2026-05-04 20:10 35.61533 -115.80217 32915 ft 579 kts 46°
2026-05-04 20:10 35.66942 -115.72866 32913 ft 579 kts 47°
2026-05-04 20:11 35.72309 -115.65478 32911 ft 579 kts 47°
2026-05-04 20:11 35.77664 -115.58077 32909 ft 579 kts 47°
2026-05-04 20:12 35.83015 -115.50679 32909 ft 578 kts 47°
2026-05-04 20:12 35.88358 -115.43283 32911 ft 578 kts 47°
2026-05-04 20:13 35.92804 -115.37119 32912 ft 577 kts 47°
2026-05-04 20:13 35.98131 -115.29718 32913 ft 576 kts 47°
2026-05-04 20:14 36.03446 -115.22314 32910 ft 573 kts 47°
2026-05-04 20:14 36.08778 -115.15032 32901 ft 570 kts 43°
2026-05-04 20:15 36.14601 -115.08422 32891 ft 566 kts 37°
2026-05-04 20:15 36.20583 -115.02218 32848 ft 564 kts 36°
2026-05-04 20:16 36.26560 -114.95963 32822 ft 562 kts 37°
2026-05-04 20:16 36.32477 -114.89609 32823 ft 562 kts 37°
2026-05-04 20:17 36.38353 -114.83221 32826 ft 561 kts 38°
2026-05-04 20:17 36.44223 -114.76825 32827 ft 561 kts 38°
2026-05-04 20:18 36.50094 -114.70431 32831 ft 560 kts 37°
2026-05-04 20:18 36.55942 -114.64056 32833 ft 559 kts 37°
2026-05-04 20:19 36.61756 -114.57707 32836 ft 559 kts 38°
2026-05-04 20:19 36.67600 -114.51309 32842 ft 559 kts 38°
2026-05-04 20:20 36.73614 -114.45190 32848 ft 556 kts 30°
2026-05-04 20:20 36.80107 -114.39998 32850 ft 551 kts 25°
2026-05-04 20:21 36.86675 -114.35115 32852 ft 549 kts 25°
2026-05-04 20:21 36.96377 -114.27650 32853 ft 548 kts 26°
2026-05-04 20:22 37.02820 -114.22554 32864 ft 548 kts 27°
2026-05-04 20:22 37.09263 -114.17439 32869 ft 547 kts 27°
2026-05-04 20:23 37.15696 -114.12336 32862 ft 547 kts 26°
2026-05-04 20:23 37.22122 -114.07238 32860 ft 546 kts 27°
2026-05-04 20:24 37.28544 -114.02133 32861 ft 546 kts 27°
2026-05-04 20:24 37.34955 -113.97023 32862 ft 545 kts 26°
2026-05-04 20:25 37.41357 -113.91910 32865 ft 545 kts 26°
2026-05-04 20:25 37.47747 -113.86797 32868 ft 544 kts 26°
2026-05-04 20:26 37.54139 -113.81673 32875 ft 544 kts 26°
2026-05-04 20:26 37.60527 -113.76541 32881 ft 544 kts 27°
2026-05-04 20:27 37.66869 -113.71435 32889 ft 544 kts 27°
2026-05-04 20:27 37.73243 -113.66291 32900 ft 544 kts 27°
2026-05-04 20:28 37.79651 -113.61111 32915 ft 544 kts 27°
2026-05-04 20:28 37.85993 -113.55974 32913 ft 544 kts 27°